Simultaneous Nadir Overpasses (SNOs) Predictions

Prediction of SNOs between FY3D and AQUA Satellite Orbit:

Table of predicted SNOs for the next 14.0 days since TLE Epoch: 1/21/2023
Index Date (FY3D) Time (FY3D) Lat,Lon (FY3D) SZA (FY3D ) Date (AQUA) Time (AQUA) Lat,Lon (AQUA) SZA (AQUA ) Distance(km) Time Diff (sec)
1 01/23/2023 00:28:23 -78.15, -24.95 81.64 01/23/2023 00:29:25 -78.15, -24.90 81.66 1.39 62
2 01/23/2023 01:18:52 77.47, 145.83 97.49 01/23/2023 01:18:36 77.48, 145.73 97.50 2.56 16
3 01/25/2023 15:04:49 -77.97, 116.97 82.50 01/25/2023 15:05:38 -77.97, 116.90 82.50 1.72 49
4 01/25/2023 15:55:24 77.53, -73.52 96.94 01/25/2023 15:54:54 77.52, -73.49 96.94 0.73 30
5 01/28/2023 05:41:18 -77.95,-102.02 83.18 01/28/2023 05:41:52 -77.95,-102.03 83.19 0.33 34
6 01/28/2023 06:31:53 77.51, 67.47 96.26 01/28/2023 06:31:08 77.50, 67.56 96.25 2.22 45
7 01/30/2023 20:17:46 -77.86, 39.36 83.99 01/30/2023 20:18:04 -77.86, 39.34 84.00 0.67 18
8 01/30/2023 21:08:20 77.37,-150.99 95.39 01/30/2023 21:07:19 77.37,-150.92 95.39 1.93 61
9 02/02/2023 10:54:11 -77.65,-178.71 84.99 02/02/2023 10:54:12 -77.66,-178.82 84.97 2.77 1



Historial Predications of SNOs between FY3D and AQUA
